Content
SEND FEEDBACK

Daily
Averages
Monthly
Summary
United States of America

TAMUNING, GUAM


Home > North America > United States > Guam
Elevation: 250 feet     Latitude: 13 29N     Longitude: 144 47E

WEATHER
 
SELECT A DAY
Number of Records: 342,554;   Date Range: 1/1/95 - 9/16/14
 
SHARE

PRINT THIS DATA

[ ← Previous Day ]
WEATHER ALMANAC - MAY 6, 2013
[ Next Day → ]
[ °C ]   °F
Weather ElementAverageHighLow
Temperature80.8 °F85.6 °F (11:55 am)76.5 °F (11:55 pm)
Dewpoint74.6 °F75.9 °F (8:55 pm)71.6 °F (5:21 am)
Humidity81.7 %94 % (11:10 pm)70 % (11:55 am)
Barometer29.85 in29.89 in (10:55 am)29.78 in (3:55 pm)
Wind Speed12.5 mph17.3 mph (10:38 am)
Wind Gust24.2 mph (11:19 am)
Weather ElementAverage
Visibility8.6 mi
Wind DirectionENE (76.6 °)

Weather ElementTotal
Precipitation0.24 in
Cooling Degree Days16.1 (Base 65)
Growing Degree Days31.1 (Base 50)
Averaged from 83 records on May 6, 2013
WEATHER CONDITIONS BREAKOUT
WIND DIRECTION BREAKOUT
WEATHER BY HOUR - MAY 6, 2013
[ °C ]   °F
Local TimeTemperatureDewpointHumidityBarometerVisibilityWind DirectionWind SpeedGust SpeedPrecipitationEventsConditions
12:55 AM79.2 °F73.2 °F82 %29.87 in10.0 miEast (80°)15.0 mphMostly Cloudy
12:56 AM78.8 °F73.4 °F83 %29.87 in10.0 miENE (70°)16.1 mphScattered Clouds
1:55 AM79.0 °F74.3 °F85 %29.86 in10.0 miEast (80°)11.5 mphMostly Cloudy
2:07 AM78.8 °F73.4 °F83 %29.85 in10.0 miEast (80°)13.8 mphScattered Clouds
2:55 AM78.6 °F72.9 °F82 %29.84 in10.0 miEast (80°)13.8 mphPartly Cloudy
3:55 AM78.4 °F72.7 °F82 %29.84 in10.0 miEast (90°)12.7 mphPartly Cloudy
4:55 AM78.4 °F72.3 °F81 %29.84 in10.0 miEast (90°)11.5 mphClear
5:21 AM78.8 °F71.6 °F78 %29.84 in10.0 miEast (90°)11.5 mphRainLight Rain
5:41 AM78.8 °F71.6 °F78 %29.84 in10.0 miEast (90°)10.4 mphClear
5:55 AM78.4 °F72.7 °F82 %29.84 in10.0 miEast (90°)11.5 mph0.00 inPartly Cloudy
6:43 AM78.8 °F73.4 °F83 %29.85 in10.0 miEast (90°)11.5 mphMostly Cloudy
6:49 AM78.8 °F71.6 °F78 %29.85 in10.0 miEast (90°)12.7 mphScattered Clouds
6:55 AM79.9 °F72.9 °F79 %29.85 in10.0 miEast (100°)11.5 mphScattered Clouds
7:55 AM82.2 °F73.9 °F76 %29.86 in10.0 miEast (90°)10.4 mphScattered Clouds
8:16 AM82.4 °F73.4 °F74 %29.86 in10.0 miEast (90°)10.4 mphMostly Cloudy
8:44 AM82.4 °F73.4 °F74 %29.86 in10.0 miENE (70°)15.0 mphScattered Clouds
8:55 AM83.3 °F74.3 °F74 %29.86 in10.0 miENE (70°)11.5 mphPartly Cloudy
9:32 AM84.2 °F75.2 °F74 %29.86 in10.0 miENE (70°)13.8 mphMostly Cloudy
9:55 AM83.8 °F74.7 °F74 %29.86 in10.0 miENE (70°)15.0 mphMostly Cloudy
10:38 AM84.2 °F75.2 °F74 %29.85 in10.0 miEast (80°)17.3 mphScattered Clouds
10:39 AM84.2 °F75.2 °F74 %29.85 in10.0 miEast (80°)17.3 mphMostly Cloudy
10:46 AM84.2 °F75.2 °F74 %29.85 in10.0 miENE (70°)16.1 mphScattered Clouds
10:51 AM84.2 °F75.2 °F74 %29.85 in10.0 miENE (70°)16.1 mphMostly Cloudy
10:55 AM84.2 °F75.2 °F74 %29.89 in10.0 miEast (80°)16.1 mph20.7 mphMostly Cloudy
11:00 AM84.2 °F75.2 °F74 %29.85 in10.0 miENE (70°)16.1 mph20.7 mphScattered Clouds
11:05 AM84.2 °F75.2 °F74 %29.84 in10.0 miEast (80°)16.1 mph20.7 mphMostly Cloudy
11:19 AM84.2 °F75.2 °F74 %29.84 in10.0 miEast (80°)17.3 mph24.2 mphScattered Clouds
11:24 AM84.2 °F75.2 °F74 %29.84 in10.0 miENE (70°)16.1 mph24.2 mphMostly Cloudy
11:26 AM84.2 °F75.2 °F74 %29.83 in10.0 miENE (70°)17.3 mph24.2 mphScattered Clouds
11:30 AM84.2 °F75.2 °F74 %29.83 in10.0 miEast (80°)17.3 mphMostly Cloudy
11:34 AM84.2 °F75.2 °F74 %29.83 in10.0 miEast (80°)16.1 mphScattered Clouds
11:43 AM84.2 °F75.2 °F74 %29.83 in10.0 miEast (80°)17.3 mph21.9 mphMostly Cloudy
11:45 AM84.2 °F75.2 °F74 %29.83 in10.0 miEast (80°)16.1 mph23.0 mphMostly Cloudy
11:55 AM85.6 °F74.7 °F70 %29.83 in10.0 miENE (60°)15.0 mph23.0 mphScattered Clouds
12:29 PM84.2 °F75.2 °F74 %29.82 in10.0 miENE (70°)15.0 mphMostly Cloudy
12:36 PM84.2 °F75.2 °F74 %29.82 in10.0 miENE (70°)15.0 mphMostly Cloudy
12:48 PM84.2 °F75.2 °F74 %29.81 in10.0 miNE (50°)15.0 mph20.7 mphMostly Cloudy
12:55 PM84.6 °F74.1 °F71 %29.81 in10.0 miENE (60°)13.8 mphMostly Cloudy
1:55 PM83.8 °F75.2 °F75 %29.80 in10.0 miENE (70°)13.8 mphMostly Cloudy
2:31 PM84.2 °F75.2 °F74 %29.79 in10.0 miENE (60°)15.0 mphScattered Clouds
2:55 PM84.2 °F74.7 °F73 %29.79 in10.0 miEast (80°)15.0 mphScattered Clouds
3:55 PM83.8 °F74.1 °F72 %29.78 in10.0 miENE (70°)13.8 mphScattered Clouds
4:17 PM84.2 °F73.4 °F70 %29.78 in10.0 miENE (70°)12.7 mphMostly Cloudy
4:23 PM84.2 °F75.2 °F74 %29.78 in10.0 miEast (80°)10.4 mphScattered Clouds
4:55 PM83.1 °F74.1 °F74 %29.78 in10.0 miENE (60°)12.7 mphPartly Cloudy
5:55 PM81.5 °F73.9 °F78 %29.79 in10.0 miENE (60°)10.4 mphPartly Cloudy
6:42 PM80.6 °F75.2 °F84 %29.81 in10.0 miENE (60°)11.5 mphMostly Cloudy
6:55 PM80.6 °F74.8 °F83 %29.82 in10.0 miENE (60°)12.7 mphMostly Cloudy
7:10 PM80.6 °F75.2 °F84 %29.83 in10.0 miENE (60°)10.4 mphMostly Cloudy
7:55 PM80.6 °F74.3 °F81 %29.84 in10.0 miNE (50°)9.2 mphOvercast
8:43 PM80.6 °F75.2 °F84 %29.85 in10.0 miENE (60°)15.0 mphMostly Cloudy
8:55 PM79.5 °F75.9 °F89 %29.86 in10.0 miNE (50°)13.8 mphMostly Cloudy
9:21 PM80.6 °F75.2 °F84 %29.86 in10.0 miNE (50°)10.4 mphMostly Cloudy
9:27 PM80.6 °F75.2 °F84 %29.86 in10.0 miENE (60°)12.7 mphMostly Cloudy
9:29 PM78.8 °F75.2 °F89 %29.86 in10.0 miENE (60°)10.4 mphMostly Cloudy
9:33 PM78.8 °F75.2 °F89 %29.86 in10.0 miENE (60°)10.4 mphMostly Cloudy
9:55 PM79.5 °F74.5 °F84 %29.86 in10.0 miENE (60°)12.7 mphMostly Cloudy
10:30 PM80.6 °F75.2 °F84 %29.87 in10.0 miENE (60°)11.5 mphLight Drizzle
10:39 PM80.6 °F73.4 °F79 %29.87 in10.0 miENE (60°)11.5 mphMostly Cloudy
10:42 PM80.6 °F75.2 °F84 %29.87 in10.0 miENE (60°)12.7 mphMostly Cloudy
10:52 PM80.6 °F75.2 °F84 %29.87 in10.0 miENE (60°)11.5 mphMostly Cloudy
10:54 PM80.6 °F75.2 °F84 %29.87 in10.0 miENE (60°)10.4 mphMostly Cloudy
10:55 PM79.9 °F75.2 °F86 %29.87 in10.0 miENE (60°)10.4 mph0.00 inMostly Cloudy
11:01 PM80.6 °F75.2 °F84 %29.87 in10.0 miEast (90°)15.0 mph19.6 mphOvercast
11:02 PM78.8 °F75.2 °F89 %29.87 in9.0 miEast (90°)15.0 mph20.7 mphOvercast
11:03 PM78.8 °F75.2 °F89 %29.87 in7.0 miEast (100°)17.3 mph20.7 mphRainLight Rain
11:06 PM78.8 °F75.2 °F89 %29.87 in2.5 miESE (110°)16.1 mph20.7 mphRainRain
11:07 PM78.8 °F75.2 °F89 %29.87 in2.0 miESE (120°)17.3 mph20.7 mphRainRain
11:10 PM77.0 °F75.2 °F94 %29.87 in1.8 miESE (110°)15.0 mphRainHeavy Rain
11:14 PM77.0 °F75.2 °F94 %29.88 in2.0 miEast (100°)13.8 mphRainLight Rain
11:18 PM77.0 °F75.2 °F94 %29.88 in1.8 miESE (110°)12.7 mphRainHeavy Rain
11:23 PM77.0 °F75.2 °F94 %29.87 in1.2 miESE (110°)8.1 mphRainHeavy Rain
11:24 PM77.0 °F75.2 °F94 %29.87 in1.2 miESE (110°)9.2 mphRainHeavy Rain
11:26 PM77.0 °F75.2 °F94 %29.87 in1.2 miEast (100°)8.1 mphRainHeavy Rain
11:27 PM77.0 °F75.2 °F94 %29.87 in1.2 miEast (100°)6.9 mphRainHeavy Rain
11:28 PM77.0 °F75.2 °F94 %29.87 in1.5 miEast (100°)5.8 mphRainHeavy Rain
11:30 PM77.0 °F75.2 °F94 %29.87 in2.0 miEast (90°)5.8 mphRainLight Rain
11:32 PM77.0 °F75.2 °F94 %29.87 in2.5 miEast (90°)5.8 mphRainLight Rain
11:33 PM77.0 °F75.2 °F94 %29.87 in3.0 miEast (80°)5.8 mphRainLight Rain
11:34 PM77.0 °F75.2 °F94 %29.87 in4.0 miEast (80°)5.8 mphRainLight Rain
11:38 PM77.0 °F75.2 °F94 %29.87 in9.0 miEast (100°)4.6 mphOvercast
11:43 PM77.0 °F75.2 °F94 %29.87 in10.0 miENE (70°)5.8 mphOvercast
11:55 PM76.5 °F74.7 °F94 %29.86 in10.0 miCalm0.24 inOvercast
Hourly data recorded from PGUA, located miles away from Tamuning, Guam







STORIES FROM OUR PARTNERS